{"data":{"norad_id":53681,"intl_designator":"2022-105AK","name":"STARLINK-4424","alt_names":[],"object_type":"PAYLOAD","status":"ACTIVE","operator":null,"country":"US","launch_date":"2022-08-31","launch_site_code":"AFWTR","launch_vehicle":null,"mission":null,"orbit_class":"UNKNOWN","rcs_meters":null,"size_class":null,"mass_kg":null,"dimensions":null,"purposes":["comms"],"wikipedia_slug":null,"has_3d_model":false,"image_url":null,"decayed_at":null,"tle_current":{"epoch":"2026-05-25T04:00:03.998880Z","epoch_age_seconds":56795,"freshness":"FRESH","line1":"1 53681U 22105AK  26145.16671295  .00430596  00000+0  86383-2 0  9994","line2":"2 53681  97.6054  27.5143 0001252  91.9794 133.3331 15.45043108  5886","mean_motion":15.45043108,"eccentricity":0.0001252,"inclination_deg":97.6054,"raan_deg":27.5143,"arg_perigee_deg":91.9794,"mean_anomaly_deg":133.3331,"bstar":0.0086383,"rev_number":588,"period_min":93.201283028538,"perigee_km":430.39887533257,"apogee_km":432.10394619062,"semimajor_km":6809.3884107616,"source":"CELESTRAK","updated_at":"2026-05-25T13:38:17.526895Z"}}}